Time,TemperatureF,DewpointF,PressureIn,WindDirection,WindDirectionDegrees,WindSpeedMPH,WindSpeedGustMPH,Humidity,HourlyPrecipIn,Conditions,Clouds,dailyrainin,SoftwareType,DateUTC
2013-02-09 00:00:00,42.0,34.6,30.20,SW,225,0.0,2.0,75,0.00,,,0.00,Weather View 32 v70,2013-02-09 05:00:00,
2013-02-09 00:05:00,42.0,34.6,30.19,South,180,0.0,2.0,75,0.00,,,0.00,Weather View 32 v70,2013-02-09 05:05:00,
2013-02-09 00:10:00,41.0,33.7,30.19,WSW,247,0.0,2.0,75,0.00,,,0.00,Weather View 32 v70,2013-02-09 05:10:00,
2013-02-09 00:20:00,41.0,33.7,30.19,East,90,0.0,2.0,75,0.00,,,0.00,Weather View 32 v70,2013-02-09 05:20:00,
2013-02-09 00:25:00,41.0,33.7,30.19,West,270,0.0,3.0,75,0.00,,,0.00,Weather View 32 v70,2013-02-09 05:25:00,
2013-02-09 00:30:00,41.0,33.7,30.19,SW,225,0.0,3.0,75,0.00,,,0.00,Weather View 32 v70,2013-02-09 05:30:00,
2013-02-09 00:35:00,41.0,33.7,30.20,West,270,0.0,3.0,75,0.00,,,0.00,Weather View 32 v70,2013-02-09 05:35:00,
2013-02-09 00:40:00,40.0,32.7,30.20,WSW,247,0.0,3.0,75,0.00,,,0.00,Weather View 32 v70,2013-02-09 05:40:00,
2013-02-09 00:45:00,41.0,33.7,30.20,West,270,0.0,3.0,75,0.00,,,0.00,Weather View 32 v70,2013-02-09 05:45:00,
2013-02-09 00:50:00,40.0,32.7,30.20,West,270,0.0,3.0,75,0.00,,,0.00,Weather View 32 v70,2013-02-09 05:50:00,
2013-02-09 00:55:00,40.0,32.7,30.20,West,270,0.0,3.0,75,0.00,,,0.00,Weather View 32 v70,2013-02-09 05:55:00,
2013-02-09 01:05:00,40.0,32.7,30.20,ENE,67,0.0,3.0,75,0.00,,,0.00,Weather View 32 v70,2013-02-09 06:05:00,
2013-02-09 01:10:00,40.0,32.7,30.20,SE,135,0.0,3.0,75,0.00,,,0.00,Weather View 32 v70,2013-02-09 06:10:00,
2013-02-09 01:15:00,40.0,32.7,30.21,SE,135,0.0,3.0,75,0.00,,,0.00,Weather View 32 v70,2013-02-09 06:15:00,
2013-02-09 01:20:00,39.0,31.7,30.21,SE,135,0.0,3.0,75,0.00,,,0.00,Weather View 32 v70,2013-02-09 06:20:00,
2013-02-09 01:25:00,39.0,31.7,30.22,SE,135,0.0,0.0,75,0.00,,,0.00,Weather View 32 v70,2013-02-09 06:25:00,
2013-02-09 01:30:00,39.0,31.7,30.22,SE,135,0.0,0.0,75,0.00,,,0.00,Weather View 32 v70,2013-02-09 06:30:00,
2013-02-09 01:35:00,39.0,31.7,30.22,SE,135,0.0,0.0,75,0.00,,,0.00,Weather View 32 v70,2013-02-09 06:35:00,
2013-02-09 01:40:00,38.0,30.8,30.22,SE,135,0.0,0.0,75,0.00,,,0.00,Weather View 32 v70,2013-02-09 06:40:00,
2013-02-09 01:45:00,38.0,30.8,30.23,SE,135,0.0,0.0,75,0.00,,,0.00,Weather View 32 v70,2013-02-09 06:45:00,
2013-02-09 01:50:00,38.0,30.8,30.23,SE,135,0.0,0.0,75,0.00,,,0.00,Weather View 32 v70,2013-02-09 06:50:00,
2013-02-09 01:55:00,38.0,30.8,30.23,SE,135,0.0,0.0,75,0.00,,,0.00,Weather View 32 v70,2013-02-09 06:55:00,
2013-02-09 02:00:00,37.0,30.1,30.23,SE,135,0.0,0.0,76,0.00,,,0.00,Weather View 32 v70,2013-02-09 07:00:00,
2013-02-09 02:05:00,37.0,30.1,30.24,SE,135,0.0,0.0,76,0.00,,,0.00,Weather View 32 v70,2013-02-09 07:05:00,
2013-02-09 02:15:00,37.0,30.1,30.23,SE,135,0.0,0.0,76,0.00,,,0.00,Weather View 32 v70,2013-02-09 07:15:00,
2013-02-09 02:20:00,36.0,29.2,30.23,SE,135,0.0,0.0,76,0.00,,,0.00,Weather View 32 v70,2013-02-09 07:20:00,
2013-02-09 02:25:00,36.0,29.2,30.24,SE,135,0.0,0.0,76,0.00,,,0.00,Weather View 32 v70,2013-02-09 07:25:00,
2013-02-09 02:30:00,36.0,29.2,30.24,SE,135,0.0,0.0,76,0.00,,,0.00,Weather View 32 v70,2013-02-09 07:30:00,
2013-02-09 02:35:00,36.0,29.2,30.24,NW,315,0.0,0.0,76,0.00,,,0.00,Weather View 32 v70,2013-02-09 07:35:00,
2013-02-09 02:40:00,35.0,28.2,30.24,NW,315,0.0,0.0,76,0.00,,,0.00,Weather View 32 v70,2013-02-09 07:40:00,
2013-02-09 02:50:00,35.0,28.2,30.24,NW,315,0.0,0.0,76,0.00,,,0.00,Weather View 32 v70,2013-02-09 07:50:00,
2013-02-09 02:55:00,35.0,28.2,30.24,NW,315,0.0,0.0,76,0.00,,,0.00,Weather View 32 v70,2013-02-09 07:55:00,
2013-02-09 03:00:00,35.0,28.2,30.24,NW,315,0.0,0.0,76,0.00,,,0.00,Weather View 32 v70,2013-02-09 08:00:00,
2013-02-09 03:05:00,35.0,28.2,30.24,NW,315,0.0,0.0,76,0.00,,,0.00,Weather View 32 v70,2013-02-09 08:05:00,
2013-02-09 03:10:00,34.0,27.2,30.24,NW,315,0.0,0.0,76,0.00,,,0.00,Weather View 32 v70,2013-02-09 08:10:00,
2013-02-09 03:15:00,34.0,27.2,30.25,NW,315,0.0,0.0,76,0.00,,,0.00,Weather View 32 v70,2013-02-09 08:15:00,
2013-02-09 03:20:00,34.0,27.2,30.25,NE,45,0.0,0.0,76,0.00,,,0.00,Weather View 32 v70,2013-02-09 08:20:00,
2013-02-09 03:25:00,34.0,27.2,30.26,NE,45,0.0,0.0,76,0.00,,,0.00,Weather View 32 v70,2013-02-09 08:25:00,
2013-02-09 03:30:00,34.0,27.2,30.26,NE,45,0.0,0.0,76,0.00,,,0.00,Weather View 32 v70,2013-02-09 08:30:00,
2013-02-09 03:40:00,33.0,26.3,30.25,NE,45,0.0,0.0,76,0.00,,,0.00,Weather View 32 v70,2013-02-09 08:40:00,
2013-02-09 03:45:00,33.0,26.3,30.26,ENE,67,0.0,0.0,76,0.00,,,0.00,Weather View 32 v70,2013-02-09 08:45:00,
2013-02-09 03:50:00,33.0,26.3,30.26,ENE,67,0.0,0.0,76,0.00,,,0.00,Weather View 32 v70,2013-02-09 08:50:00,
2013-02-09 03:55:00,33.0,26.3,30.26,ENE,67,0.0,0.0,76,0.00,,,0.00,Weather View 32 v70,2013-02-09 08:55:00,
2013-02-09 04:00:00,33.0,26.3,30.26,ENE,67,0.0,0.0,76,0.00,,,0.00,Weather View 32 v70,2013-02-09 09:00:00,
2013-02-09 04:05:00,33.0,26.3,30.27,ENE,67,0.0,0.0,76,0.00,,,0.00,Weather View 32 v70,2013-02-09 09:05:00,
2013-02-09 04:10:00,33.0,26.3,30.27,ENE,67,0.0,0.0,76,0.00,,,0.00,Weather View 32 v70,2013-02-09 09:10:00,
2013-02-09 04:15:00,33.0,26.3,30.28,ENE,67,0.0,0.0,76,0.00,,,0.00,Weather View 32 v70,2013-02-09 09:15:00,
2013-02-09 04:20:00,32.0,25.6,30.28,ENE,67,0.0,0.0,77,0.00,,,0.00,Weather View 32 v70,2013-02-09 09:20:00,
2013-02-09 04:25:00,32.0,25.6,30.28,ENE,67,0.0,0.0,77,0.00,,,0.00,Weather View 32 v70,2013-02-09 09:25:00,
2013-02-09 04:30:00,32.0,25.6,30.28,ENE,67,0.0,0.0,77,0.00,,,0.00,Weather View 32 v70,2013-02-09 09:30:00,
2013-02-09 04:35:00,32.0,25.6,30.29,ENE,67,0.0,0.0,77,0.00,,,0.00,Weather View 32 v70,2013-02-09 09:35:00,
2013-02-09 04:40:00,32.0,25.6,30.29,ENE,67,0.0,0.0,77,0.00,,,0.00,Weather View 32 v70,2013-02-09 09:40:00,
2013-02-09 04:50:00,31.0,24.6,30.30,ENE,67,0.0,0.0,77,0.00,,,0.00,Weather View 32 v70,2013-02-09 09:50:00,
2013-02-09 05:00:00,31.0,24.6,30.30,ENE,67,0.0,0.0,77,0.00,,,0.00,Weather View 32 v70,2013-02-09 10:00:00,
2013-02-09 05:05:00,31.0,24.6,30.31,ENE,67,0.0,0.0,77,0.00,,,0.00,Weather View 32 v70,2013-02-09 10:05:00,
2013-02-09 05:10:00,31.0,24.6,30.31,ENE,67,0.0,0.0,77,0.00,,,0.00,Weather View 32 v70,2013-02-09 10:10:00,
2013-02-09 05:15:00,31.0,24.6,30.31,ENE,67,0.0,0.0,77,0.00,,,0.00,Weather View 32 v70,2013-02-09 10:15:00,
2013-02-09 05:20:00,31.0,24.6,30.31,ENE,67,0.0,0.0,77,0.00,,,0.00,Weather View 32 v70,2013-02-09 10:20:00,
2013-02-09 05:25:00,31.0,24.6,30.32,ENE,67,0.0,0.0,77,0.00,,,0.00,Weather View 32 v70,2013-02-09 10:25:00,
2013-02-09 05:30:00,31.0,24.6,30.32,ENE,67,0.0,0.0,77,0.00,,,0.00,Weather View 32 v70,2013-02-09 10:30:00,
2013-02-09 05:35:00,31.0,24.6,30.33,ENE,67,0.0,0.0,77,0.00,,,0.00,Weather View 32 v70,2013-02-09 10:35:00,
2013-02-09 05:40:00,30.0,23.7,30.33,ENE,67,0.0,0.0,77,0.00,,,0.00,Weather View 32 v70,2013-02-09 10:40:00,
2013-02-09 05:46:00,30.0,23.7,30.33,ENE,67,0.0,0.0,77,0.00,,,0.00,Weather View 32 v70,2013-02-09 10:46:00,
2013-02-09 05:55:00,30.0,23.7,30.34,ENE,67,0.0,0.0,77,0.00,,,0.00,Weather View 32 v70,2013-02-09 10:55:00,
2013-02-09 06:00:00,30.0,23.7,30.34,ENE,67,0.0,0.0,77,0.00,,,0.00,Weather View 32 v70,2013-02-09 11:00:00,
2013-02-09 06:05:00,30.0,23.7,30.34,ENE,67,0.0,0.0,77,0.00,,,0.00,Weather View 32 v70,2013-02-09 11:05:00,
2013-02-09 06:10:00,30.0,23.7,30.34,ENE,67,0.0,0.0,77,0.00,,,0.00,Weather View 32 v70,2013-02-09 11:10:00,
2013-02-09 06:15:00,30.0,23.7,30.35,ENE,67,0.0,0.0,77,0.00,,,0.00,Weather View 32 v70,2013-02-09 11:15:00,
2013-02-09 06:20:00,29.0,22.7,30.35,ENE,67,0.0,0.0,77,0.00,,,0.00,Weather View 32 v70,2013-02-09 11:20:00,
2013-02-09 06:25:00,29.0,22.7,30.36,ENE,67,0.0,0.0,77,0.00,,,0.00,Weather View 32 v70,2013-02-09 11:25:00,
2013-02-09 06:30:00,29.0,22.7,30.36,ENE,67,0.0,0.0,77,0.00,,,0.00,Weather View 32 v70,2013-02-09 11:30:00,
2013-02-09 06:35:00,29.0,22.7,30.36,ENE,67,0.0,0.0,77,0.00,,,0.00,Weather View 32 v70,2013-02-09 11:35:00,
2013-02-09 06:40:00,29.0,22.7,30.36,ENE,67,0.0,0.0,77,0.00,,,0.00,Weather View 32 v70,2013-02-09 11:40:00,
2013-02-09 06:45:00,29.0,22.7,30.37,ENE,67,0.0,0.0,77,0.00,,,0.00,Weather View 32 v70,2013-02-09 11:45:00,
2013-02-09 06:50:00,29.0,22.7,30.37,ENE,67,0.0,0.0,77,0.00,,,0.00,Weather View 32 v70,2013-02-09 11:50:00,
2013-02-09 06:55:00,29.0,22.7,30.38,ENE,67,0.0,0.0,77,0.00,,,0.00,Weather View 32 v70,2013-02-09 11:55:00,
2013-02-09 07:00:00,29.0,22.7,30.38,ENE,67,0.0,0.0,77,0.00,,,0.00,Weather View 32 v70,2013-02-09 12:00:00,
2013-02-09 07:05:00,29.0,22.7,30.38,ENE,67,0.0,0.0,77,0.00,,,0.00,Weather View 32 v70,2013-02-09 12:05:00,
2013-02-09 07:10:00,29.0,22.7,30.38,ENE,67,0.0,0.0,77,0.00,,,0.00,Weather View 32 v70,2013-02-09 12:10:00,
2013-02-09 07:15:00,29.0,22.7,30.39,ENE,67,0.0,0.0,77,0.00,,,0.00,Weather View 32 v70,2013-02-09 12:15:00,
2013-02-09 07:25:00,29.0,22.7,30.40,ENE,67,0.0,0.0,77,0.00,,,0.00,Weather View 32 v70,2013-02-09 12:25:00,
2013-02-09 07:30:00,29.0,22.7,30.40,ENE,67,0.0,0.0,77,0.00,,,0.00,Weather View 32 v70,2013-02-09 12:30:00,
2013-02-09 07:35:00,29.0,22.7,30.41,ENE,67,0.0,0.0,77,0.00,,,0.00,Weather View 32 v70,2013-02-09 12:35:00,
2013-02-09 07:40:00,28.0,21.7,30.41,ENE,67,0.0,0.0,77,0.00,,,0.00,Weather View 32 v70,2013-02-09 12:40:00,
2013-02-09 07:45:00,29.0,22.7,30.41,ENE,67,0.0,0.0,77,0.00,,,0.00,Weather View 32 v70,2013-02-09 12:45:00,
2013-02-09 07:50:00,28.0,21.7,30.41,ENE,67,0.0,0.0,77,0.00,,,0.00,Weather View 32 v70,2013-02-09 12:50:00,
2013-02-09 07:55:00,29.0,22.7,30.42,ENE,67,0.0,0.0,77,0.00,,,0.00,Weather View 32 v70,2013-02-09 12:55:00,
2013-02-09 08:00:00,28.0,21.7,30.42,ENE,67,0.0,0.0,77,0.00,,,0.00,Weather View 32 v70,2013-02-09 13:00:00,
2013-02-09 08:05:00,29.0,22.7,30.43,ENE,67,0.0,0.0,77,0.00,,,0.00,Weather View 32 v70,2013-02-09 13:05:00,
2013-02-09 08:10:00,29.0,22.7,30.43,ENE,67,0.0,0.0,77,0.00,,,0.00,Weather View 32 v70,2013-02-09 13:10:00,
2013-02-09 08:15:00,29.0,22.7,30.44,ENE,67,0.0,0.0,77,0.00,,,0.00,Weather View 32 v70,2013-02-09 13:15:00,
2013-02-09 08:20:00,29.0,22.7,30.44,ENE,67,0.0,0.0,77,0.00,,,0.00,Weather View 32 v70,2013-02-09 13:20:00,
2013-02-09 08:25:00,30.0,23.7,30.44,ENE,67,0.0,0.0,77,0.00,,,0.00,Weather View 32 v70,2013-02-09 13:25:00,
2013-02-09 08:30:00,30.0,23.7,30.44,ENE,67,0.0,0.0,77,0.00,,,0.00,Weather View 32 v70,2013-02-09 13:30:00,
2013-02-09 08:40:00,31.0,24.6,30.44,WNW,292,0.0,0.0,77,0.00,,,0.00,Weather View 32 v70,2013-02-09 13:40:00,
2013-02-09 08:45:00,32.0,25.6,30.44,WNW,292,0.0,0.0,77,0.00,,,0.00,Weather View 32 v70,2013-02-09 13:45:00,
2013-02-09 08:50:00,32.0,25.6,30.44,NW,315,0.0,0.0,77,0.00,,,0.00,Weather View 32 v70,2013-02-09 13:50:00,
2013-02-09 08:55:00,34.0,27.2,30.42,NW,315,0.0,0.0,76,0.00,,,0.00,Weather View 32 v70,2013-02-09 13:55:00,
2013-02-09 09:00:00,34.0,27.2,30.42,NW,315,0.0,0.0,76,0.00,,,0.00,Weather View 32 v70,2013-02-09 14:00:00,
2013-02-09 09:05:00,35.0,28.2,30.43,West,270,0.0,0.0,76,0.00,,,0.00,Weather View 32 v70,2013-02-09 14:05:00,
2013-02-09 09:10:00,36.0,29.2,30.43,WNW,292,0.0,0.0,76,0.00,,,0.00,Weather View 32 v70,2013-02-09 14:10:00,
2013-02-09 09:15:00,37.0,30.1,30.43,NW,315,0.0,0.0,76,0.00,,,0.00,Weather View 32 v70,2013-02-09 14:15:00,
2013-02-09 09:20:00,37.0,30.1,30.43,West,270,0.0,0.0,76,0.00,,,0.00,Weather View 32 v70,2013-02-09 14:20:00,
2013-02-09 09:25:00,38.0,30.8,30.42,NE,45,0.0,0.0,75,0.00,,,0.00,Weather View 32 v70,2013-02-09 14:25:00,
2013-02-09 09:30:00,39.0,31.7,30.42,WSW,247,0.0,5.0,75,0.00,,,0.00,Weather View 32 v70,2013-02-09 14:30:00,
2013-02-09 09:35:00,39.0,31.7,30.42,NW,315,4.0,5.0,75,0.00,,,0.00,Weather View 32 v70,2013-02-09 14:35:00,
2013-02-09 09:40:00,39.0,31.7,30.42,West,270,0.0,5.0,75,0.00,,,0.00,Weather View 32 v70,2013-02-09 14:40:00,
2013-02-09 09:45:00,40.0,32.7,30.43,NW,315,0.0,5.0,75,0.00,,,0.00,Weather View 32 v70,2013-02-09 14:45:00,
2013-02-09 09:55:00,41.0,33.7,30.42,WSW,247,4.0,5.0,75,0.00,,,0.00,Weather View 32 v70,2013-02-09 14:55:00,
2013-02-09 10:00:00,41.0,33.7,30.42,NW,315,1.0,9.0,75,0.00,,,0.00,Weather View 32 v70,2013-02-09 15:00:00,
2013-02-09 10:05:00,41.0,33.7,30.42,West,270,1.0,9.0,75,0.00,,,0.00,Weather View 32 v70,2013-02-09 15:05:00,
2013-02-09 10:10:00,41.0,33.7,30.42,NW,315,0.0,9.0,75,0.00,,,0.00,Weather View 32 v70,2013-02-09 15:10:00,
2013-02-09 10:15:00,42.0,34.6,30.42,West,270,0.0,9.0,75,0.00,,,0.00,Weather View 32 v70,2013-02-09 15:15:00,
2013-02-09 10:20:00,42.0,34.6,30.42,ENE,67,0.0,9.0,75,0.00,,,0.00,Weather View 32 v70,2013-02-09 15:20:00,
2013-02-09 10:25:00,42.0,34.6,30.42,West,270,0.0,9.0,75,0.00,,,0.00,Weather View 32 v70,2013-02-09 15:25:00,
2013-02-09 10:30:00,43.0,35.9,30.42,West,270,0.0,9.0,76,0.00,,,0.00,Weather View 32 v70,2013-02-09 15:30:00,
2013-02-09 10:35:00,43.0,35.9,30.42,North,360,1.0,9.0,76,0.00,,,0.00,Weather View 32 v70,2013-02-09 15:35:00,
2013-02-09 10:40:00,43.0,35.9,30.42,SW,225,0.0,9.0,76,0.00,,,0.00,Weather View 32 v70,2013-02-09 15:40:00,
2013-02-09 10:45:00,44.0,36.9,30.43,NW,315,0.0,9.0,76,0.00,,,0.00,Weather View 32 v70,2013-02-09 15:45:00,
2013-02-09 10:50:00,44.0,36.9,30.43,NW,315,0.0,9.0,76,0.00,,,0.00,Weather View 32 v70,2013-02-09 15:50:00,
2013-02-09 11:00:00,46.0,38.8,30.43,ENE,67,0.0,6.0,76,0.00,,,0.00,Weather View 32 v70,2013-02-09 16:00:00,
2013-02-09 11:05:00,47.0,39.8,30.42,East,90,0.0,6.0,76,0.00,,,0.00,Weather View 32 v70,2013-02-09 16:05:00,
2013-02-09 11:10:00,47.0,39.8,30.42,West,270,1.0,6.0,76,0.00,,,0.00,Weather View 32 v70,2013-02-09 16:10:00,
2013-02-09 11:15:00,49.0,42.1,30.41,East,90,0.0,6.0,77,0.00,,,0.00,Weather View 32 v70,2013-02-09 16:15:00,
2013-02-09 11:20:00,49.0,42.1,30.41,East,90,0.0,6.0,77,0.00,,,0.00,Weather View 32 v70,2013-02-09 16:20:00,
2013-02-09 11:25:00,50.0,43.1,30.41,West,270,0.0,6.0,77,0.00,,,0.00,Weather View 32 v70,2013-02-09 16:25:00,
2013-02-09 11:30:00,50.0,43.1,30.41,West,270,0.0,6.0,77,0.00,,,0.00,Weather View 32 v70,2013-02-09 16:30:00,
2013-02-09 11:35:00,51.0,44.0,30.41,NW,315,0.0,6.0,77,0.00,,,0.00,Weather View 32 v70,2013-02-09 16:35:00,
2013-02-09 11:40:00,51.0,44.0,30.41,North,360,0.0,6.0,77,0.00,,,0.00,Weather View 32 v70,2013-02-09 16:40:00,
2013-02-09 11:45:00,52.0,45.0,30.41,NE,45,0.0,7.0,77,0.00,,,0.00,Weather View 32 v70,2013-02-09 16:45:00,
2013-02-09 11:50:00,52.0,45.0,30.41,NW,315,0.0,7.0,77,0.00,,,0.00,Weather View 32 v70,2013-02-09 16:50:00,
2013-02-09 11:55:00,52.0,45.0,30.41,West,270,0.0,7.0,77,0.00,,,0.00,Weather View 32 v70,2013-02-09 16:55:00,
2013-02-09 12:02:00,52.0,45.0,30.41,West,270,0.0,7.0,77,0.00,,,0.00,Weather View 32 v70,2013-02-09 17:02:00,
2013-02-09 12:10:00,52.0,45.0,30.41,NW,315,0.0,7.0,77,0.00,,,0.00,Weather View 32 v70,2013-02-09 17:10:00,
2013-02-09 12:15:00,52.0,45.0,30.40,North,360,0.0,7.0,77,0.00,,,0.00,Weather View 32 v70,2013-02-09 17:15:00,
2013-02-09 12:20:00,51.0,44.0,30.40,NW,315,0.0,7.0,77,0.00,,,0.00,Weather View 32 v70,2013-02-09 17:20:00,
2013-02-09 12:25:00,51.0,44.0,30.40,SW,225,0.0,7.0,77,0.00,,,0.00,Weather View 32 v70,2013-02-09 17:25:00,
2013-02-09 12:30:00,51.0,44.0,30.40,West,270,0.0,7.0,77,0.00,,,0.00,Weather View 32 v70,2013-02-09 17:30:00,
2013-02-09 12:35:00,52.0,45.0,30.40,West,270,0.0,7.0,77,0.00,,,0.00,Weather View 32 v70,2013-02-09 17:35:00,
2013-02-09 12:40:00,52.0,45.0,30.40,NW,315,0.0,7.0,77,0.00,,,0.00,Weather View 32 v70,2013-02-09 17:40:00,
2013-02-09 12:45:00,52.0,45.0,30.39,West,270,0.0,6.0,77,0.00,,,0.00,Weather View 32 v70,2013-02-09 17:45:00,
2013-02-09 12:55:00,53.0,46.0,30.38,West,270,0.0,6.0,77,0.00,,,0.00,Weather View 32 v70,2013-02-09 17:55:00,
2013-02-09 13:00:00,54.0,47.3,30.38,NW,315,0.0,6.0,78,0.00,,,0.00,Weather View 32 v70,2013-02-09 18:00:00,
2013-02-09 13:05:00,54.0,47.3,30.37,East,90,0.0,6.0,78,0.00,,,0.00,Weather View 32 v70,2013-02-09 18:05:00,
2013-02-09 13:10:00,54.0,47.3,30.37,West,270,0.0,6.0,78,0.00,,,0.00,Weather View 32 v70,2013-02-09 18:10:00,
2013-02-09 13:15:00,55.0,48.3,30.37,NE,45,0.0,6.0,78,0.00,,,0.00,Weather View 32 v70,2013-02-09 18:15:00,
2013-02-09 13:20:00,55.0,48.3,30.37,West,270,0.0,6.0,78,0.00,,,0.00,Weather View 32 v70,2013-02-09 18:20:00,
2013-02-09 13:25:00,56.0,49.2,30.37,West,270,0.0,6.0,78,0.00,,,0.00,Weather View 32 v70,2013-02-09 18:25:00,
2013-02-09 13:30:00,56.0,49.2,30.37,West,270,0.0,4.0,78,0.00,,,0.00,Weather View 32 v70,2013-02-09 18:30:00,
2013-02-09 13:35:00,56.0,49.2,30.36,West,270,0.0,4.0,78,0.00,,,0.00,Weather View 32 v70,2013-02-09 18:35:00,
2013-02-09 13:40:00,56.0,49.2,30.36,NE,45,0.0,4.0,78,0.00,,,0.00,Weather View 32 v70,2013-02-09 18:40:00,
2013-02-09 13:45:00,57.0,50.2,30.35,West,270,5.0,7.0,78,0.00,,,0.00,Weather View 32 v70,2013-02-09 18:45:00,
2013-02-09 13:50:00,56.0,49.2,30.35,NW,315,4.0,7.0,78,0.00,,,0.00,Weather View 32 v70,2013-02-09 18:50:00,
2013-02-09 14:00:00,57.0,50.2,30.35,West,270,4.0,7.0,78,0.00,,,0.00,Weather View 32 v70,2013-02-09 19:00:00,
2013-02-09 14:05:00,57.0,50.2,30.35,West,270,0.0,7.0,78,0.00,,,0.00,Weather View 32 v70,2013-02-09 19:05:00,
2013-02-09 14:10:00,57.0,50.2,30.35,West,270,0.0,7.0,78,0.00,,,0.00,Weather View 32 v70,2013-02-09 19:10:00,
2013-02-09 14:15:00,58.0,51.2,30.34,NW,315,0.0,7.0,78,0.00,,,0.00,Weather View 32 v70,2013-02-09 19:15:00,
2013-02-09 14:20:00,57.0,50.2,30.34,WNW,292,0.0,7.0,78,0.00,,,0.00,Weather View 32 v70,2013-02-09 19:20:00,
2013-02-09 14:25:00,58.0,51.2,30.34,NW,315,0.0,7.0,78,0.00,,,0.00,Weather View 32 v70,2013-02-09 19:25:00,
2013-02-09 14:30:00,58.0,51.2,30.34,West,270,0.0,7.0,78,0.00,,,0.00,Weather View 32 v70,2013-02-09 19:30:00,
2013-02-09 14:35:00,58.0,51.2,30.34,West,270,0.0,7.0,78,0.00,,,0.00,Weather View 32 v70,2013-02-09 19:35:00,
2013-02-09 14:45:00,59.0,52.5,30.34,West,270,0.0,7.0,79,0.00,,,0.00,Weather View 32 v70,2013-02-09 19:45:00,
2013-02-09 14:50:00,58.0,51.2,30.34,ESE,112,0.0,7.0,78,0.00,,,0.00,Weather View 32 v70,2013-02-09 19:50:00,
2013-02-09 14:55:00,59.0,52.5,30.34,NW,315,0.0,7.0,79,0.00,,,0.00,Weather View 32 v70,2013-02-09 19:55:00,
2013-02-09 15:00:00,59.0,52.5,30.34,NW,315,0.0,7.0,79,0.00,,,0.00,Weather View 32 v70,2013-02-09 20:00:00,
2013-02-09 15:10:00,59.0,52.5,30.34,West,270,0.0,7.0,79,0.00,,,0.00,Weather View 32 v70,2013-02-09 20:10:00,
2013-02-09 15:15:00,59.0,52.5,30.33,West,270,0.0,7.0,79,0.00,,,0.00,Weather View 32 v70,2013-02-09 20:15:00,
2013-02-09 15:20:00,59.0,52.5,30.33,West,270,0.0,7.0,79,0.00,,,0.00,Weather View 32 v70,2013-02-09 20:20:00,
2013-02-09 15:25:00,59.0,52.5,30.33,East,90,0.0,7.0,79,0.00,,,0.00,Weather View 32 v70,2013-02-09 20:25:00,
2013-02-09 15:30:00,59.0,52.5,30.33,North,360,0.0,6.0,79,0.00,,,0.00,Weather View 32 v70,2013-02-09 20:30:00,
2013-02-09 15:35:00,60.0,53.5,30.33,North,360,0.0,6.0,79,0.00,,,0.00,Weather View 32 v70,2013-02-09 20:35:00,
2013-02-09 15:40:00,60.0,53.5,30.33,NW,315,0.0,6.0,79,0.00,,,0.00,Weather View 32 v70,2013-02-09 20:40:00,
2013-02-09 15:45:00,60.0,53.5,30.34,West,270,0.0,6.0,79,0.00,,,0.00,Weather View 32 v70,2013-02-09 20:45:00,
2013-02-09 15:50:00,60.0,53.5,30.34,WNW,292,0.0,6.0,79,0.00,,,0.00,Weather View 32 v70,2013-02-09 20:50:00,
2013-02-09 15:55:00,60.0,53.5,30.34,West,270,0.0,6.0,79,0.00,,,0.00,Weather View 32 v70,2013-02-09 20:55:00,
2013-02-09 16:00:00,59.0,52.5,30.34,NW,315,0.0,6.0,79,0.00,,,0.00,Weather View 32 v70,2013-02-09 21:00:00,
2013-02-09 16:05:00,59.0,52.5,30.36,West,270,0.0,6.0,79,0.00,,,0.00,Weather View 32 v70,2013-02-09 21:05:00,
2013-02-09 16:15:00,58.0,51.2,30.36,SW,225,0.0,5.0,78,0.00,,,0.00,Weather View 32 v70,2013-02-09 21:15:00,
2013-02-09 16:20:00,57.0,50.2,30.36,West,270,0.0,5.0,78,0.00,,,0.00,Weather View 32 v70,2013-02-09 21:20:00,
2013-02-09 16:25:00,57.0,50.2,30.37,WNW,292,0.0,5.0,78,0.00,,,0.00,Weather View 32 v70,2013-02-09 21:25:00,
2013-02-09 16:30:00,56.0,49.2,30.37,West,270,0.0,5.0,78,0.00,,,0.00,Weather View 32 v70,2013-02-09 21:30:00,
2013-02-09 16:35:00,56.0,49.2,30.37,West,270,0.0,5.0,78,0.00,,,0.00,Weather View 32 v70,2013-02-09 21:35:00,
2013-02-09 16:40:00,55.0,48.3,30.37,SW,225,0.0,5.0,78,0.00,,,0.00,Weather View 32 v70,2013-02-09 21:40:00,
2013-02-09 16:45:00,55.0,48.3,30.37,NW,315,0.0,5.0,78,0.00,,,0.00,Weather View 32 v70,2013-02-09 21:45:00,
2013-02-09 16:50:00,54.0,47.3,30.37,NE,45,0.0,5.0,78,0.00,,,0.00,Weather View 32 v70,2013-02-09 21:50:00,
2013-02-09 16:55:00,54.0,47.3,30.39,NE,45,0.0,0.0,78,0.00,,,0.00,Weather View 32 v70,2013-02-09 21:55:00,
2013-02-09 17:00:00,54.0,47.3,30.39,NE,45,0.0,0.0,78,0.00,,,0.00,Weather View 32 v70,2013-02-09 22:00:00,
2013-02-09 17:05:00,53.0,46.0,30.40,NE,45,0.0,0.0,77,0.00,,,0.00,Weather View 32 v70,2013-02-09 22:05:00,
2013-02-09 17:10:00,53.0,46.0,30.40,NE,45,0.0,0.0,77,0.00,,,0.00,Weather View 32 v70,2013-02-09 22:10:00,
2013-02-09 17:15:00,53.0,46.0,30.41,NE,45,0.0,0.0,77,0.00,,,0.00,Weather View 32 v70,2013-02-09 22:15:00,
2013-02-09 17:25:00,52.0,45.0,30.41,NE,45,0.0,0.0,77,0.00,,,0.00,Weather View 32 v70,2013-02-09 22:25:00,
2013-02-09 17:30:00,51.0,44.0,30.41,NE,45,0.0,0.0,77,0.00,,,0.00,Weather View 32 v70,2013-02-09 22:30:00,
2013-02-09 17:35:00,51.0,44.0,30.43,NE,45,0.0,0.0,77,0.00,,,0.00,Weather View 32 v70,2013-02-09 22:35:00,
2013-02-09 17:45:00,49.0,42.1,30.43,NE,45,0.0,0.0,77,0.00,,,0.00,Weather View 32 v70,2013-02-09 22:45:00,
2013-02-09 17:50:00,49.0,42.1,30.43,NE,45,0.0,0.0,77,0.00,,,0.00,Weather View 32 v70,2013-02-09 22:50:00,
2013-02-09 17:55:00,48.0,41.1,30.43,NE,45,0.0,0.0,77,0.00,,,0.00,Weather View 32 v70,2013-02-09 22:55:00,
2013-02-09 18:00:00,48.0,41.1,30.43,NE,45,0.0,0.0,77,0.00,,,0.00,Weather View 32 v70,2013-02-09 23:00:00,
2013-02-09 18:05:00,47.0,39.8,30.44,NE,45,0.0,0.0,76,0.00,,,0.00,Weather View 32 v70,2013-02-09 23:05:00,
2013-02-09 18:10:00,47.0,39.8,30.44,NE,45,0.0,0.0,76,0.00,,,0.00,Weather View 32 v70,2013-02-09 23:10:00,
2013-02-09 18:15:00,46.0,38.8,30.44,NE,45,0.0,0.0,76,0.00,,,0.00,Weather View 32 v70,2013-02-09 23:15:00,
2013-02-09 18:20:00,46.0,38.8,30.44,NE,45,0.0,0.0,76,0.00,,,0.00,Weather View 32 v70,2013-02-09 23:20:00,
2013-02-09 18:25:00,45.0,37.9,30.45,NE,45,0.0,0.0,76,0.00,,,0.00,Weather View 32 v70,2013-02-09 23:25:00,
2013-02-09 18:35:00,44.0,36.9,30.45,NE,45,0.0,0.0,76,0.00,,,0.00,Weather View 32 v70,2013-02-09 23:35:00,
2013-02-09 18:40:00,43.0,35.9,30.45,NE,45,0.0,0.0,76,0.00,,,0.00,Weather View 32 v70,2013-02-09 23:40:00,
2013-02-09 18:45:00,43.0,35.9,30.46,NE,45,0.0,0.0,76,0.00,,,0.00,Weather View 32 v70,2013-02-09 23:45:00,
2013-02-09 18:50:00,42.0,34.6,30.46,NE,45,0.0,0.0,75,0.00,,,0.00,Weather View 32 v70,2013-02-09 23:50:00,
2013-02-09 18:55:00,42.0,34.6,30.46,NE,45,0.0,0.0,75,0.00,,,0.00,Weather View 32 v70,2013-02-09 23:55:00,
2013-02-09 19:00:00,42.0,34.6,30.46,NE,45,0.0,0.0,75,0.00,,,0.00,Weather View 32 v70,2013-02-10 00:00:00,
2013-02-09 19:06:00,41.0,33.7,30.46,NE,45,0.0,0.0,75,0.00,,,0.00,Weather View 32 v70,2013-02-10 00:06:00,
2013-02-09 19:15:00,41.0,33.7,30.47,NE,45,0.0,0.0,75,0.00,,,0.00,Weather View 32 v70,2013-02-10 00:15:00,
2013-02-09 19:20:00,40.0,32.7,30.47,NE,45,0.0,0.0,75,0.00,,,0.00,Weather View 32 v70,2013-02-10 00:20:00,
2013-02-09 19:30:00,39.0,31.7,30.47,NE,45,0.0,0.0,75,0.00,,,0.00,Weather View 32 v70,2013-02-10 00:30:00,
2013-02-09 19:35:00,39.0,31.7,30.48,NE,45,0.0,0.0,75,0.00,,,0.00,Weather View 32 v70,2013-02-10 00:35:00,
2013-02-09 19:40:00,38.0,30.8,30.48,NE,45,0.0,0.0,75,0.00,,,0.00,Weather View 32 v70,2013-02-10 00:40:00,
2013-02-09 19:45:00,38.0,30.8,30.49,NE,45,0.0,0.0,75,0.00,,,0.00,Weather View 32 v70,2013-02-10 00:45:00,
2013-02-09 19:50:00,38.0,30.8,30.49,NE,45,0.0,0.0,75,0.00,,,0.00,Weather View 32 v70,2013-02-10 00:50:00,
2013-02-09 19:55:00,38.0,30.8,30.49,NE,45,0.0,0.0,75,0.00,,,0.00,Weather View 32 v70,2013-02-10 00:55:00,
2013-02-09 20:00:00,37.0,30.1,30.49,NE,45,0.0,0.0,76,0.00,,,0.00,Weather View 32 v70,2013-02-10 01:00:00,
2013-02-09 20:05:00,37.0,30.1,30.50,NE,45,0.0,0.0,76,0.00,,,0.00,Weather View 32 v70,2013-02-10 01:05:00,
2013-02-09 20:10:00,36.0,29.2,30.50,NE,45,0.0,0.0,76,0.00,,,0.00,Weather View 32 v70,2013-02-10 01:10:00,
2013-02-09 20:15:00,36.0,29.2,30.50,NE,45,0.0,0.0,76,0.00,,,0.00,Weather View 32 v70,2013-02-10 01:15:00,
2013-02-09 20:20:00,36.0,29.2,30.50,NE,45,0.0,0.0,76,0.00,,,0.00,Weather View 32 v70,2013-02-10 01:20:00,
2013-02-09 20:25:00,36.0,29.2,30.50,NE,45,0.0,0.0,76,0.00,,,0.00,Weather View 32 v70,2013-02-10 01:25:00,
2013-02-09 20:30:00,35.0,28.2,30.50,NE,45,0.0,0.0,76,0.00,,,0.00,Weather View 32 v70,2013-02-10 01:30:00,
2013-02-09 20:35:00,35.0,28.2,30.51,NE,45,0.0,0.0,76,0.00,,,0.00,Weather View 32 v70,2013-02-10 01:35:00,
2013-02-09 20:40:00,35.0,28.2,30.51,NE,45,0.0,0.0,76,0.00,,,0.00,Weather View 32 v70,2013-02-10 01:40:00,
2013-02-09 20:50:00,34.0,27.2,30.52,NE,45,0.0,0.0,76,0.00,,,0.00,Weather View 32 v70,2013-02-10 01:50:00,
2013-02-09 20:55:00,34.0,27.2,30.52,NE,45,0.0,0.0,76,0.00,,,0.00,Weather View 32 v70,2013-02-10 01:55:00,
2013-02-09 21:00:00,34.0,27.2,30.52,NE,45,0.0,0.0,76,0.00,,,0.00,Weather View 32 v70,2013-02-10 02:00:00,
2013-02-09 21:05:00,34.0,27.2,30.52,NE,45,0.0,0.0,76,0.00,,,0.00,Weather View 32 v70,2013-02-10 02:05:00,
2013-02-09 21:10:00,33.0,26.3,30.52,NE,45,0.0,0.0,76,0.00,,,0.00,Weather View 32 v70,2013-02-10 02:10:00,
2013-02-09 21:15:00,33.0,26.3,30.53,NE,45,0.0,0.0,76,0.00,,,0.00,Weather View 32 v70,2013-02-10 02:15:00,
2013-02-09 21:20:00,33.0,26.3,30.53,NE,45,0.0,0.0,76,0.00,,,0.00,Weather View 32 v70,2013-02-10 02:20:00,
2013-02-09 21:25:00,33.0,26.3,30.53,NE,45,0.0,0.0,76,0.00,,,0.00,Weather View 32 v70,2013-02-10 02:25:00,
2013-02-09 21:30:00,32.0,25.6,30.53,NE,45,0.0,0.0,77,0.00,,,0.00,Weather View 32 v70,2013-02-10 02:30:00,
2013-02-09 21:35:00,32.0,25.6,30.53,NE,45,0.0,0.0,77,0.00,,,0.00,Weather View 32 v70,2013-02-10 02:35:00,
2013-02-09 21:40:00,32.0,25.6,30.53,NE,45,0.0,0.0,77,0.00,,,0.00,Weather View 32 v70,2013-02-10 02:40:00,
2013-02-09 21:45:00,32.0,25.6,30.53,NE,45,0.0,0.0,77,0.00,,,0.00,Weather View 32 v70,2013-02-10 02:45:00,
2013-02-09 21:51:00,31.0,24.6,30.53,NE,45,0.0,0.0,77,0.00,,,0.00,Weather View 32 v70,2013-02-10 02:51:00,
2013-02-09 22:00:00,31.0,24.6,30.54,NE,45,0.0,0.0,77,0.00,,,0.00,Weather View 32 v70,2013-02-10 03:00:00,
2013-02-09 22:07:00,31.0,24.6,30.55,NE,45,0.0,0.0,77,0.00,,,0.00,Weather View 32 v70,2013-02-10 03:07:00,
2013-02-09 22:15:00,31.0,24.6,30.55,NE,45,0.0,0.0,77,0.00,,,0.00,Weather View 32 v70,2013-02-10 03:15:00,
2013-02-09 22:20:00,30.0,23.7,30.55,NE,45,0.0,0.0,77,0.00,,,0.00,Weather View 32 v70,2013-02-10 03:20:00,
2013-02-09 22:25:00,30.0,23.7,30.55,NE,45,0.0,0.0,77,0.00,,,0.00,Weather View 32 v70,2013-02-10 03:25:00,
2013-02-09 22:30:00,30.0,23.7,30.55,NE,45,0.0,0.0,77,0.00,,,0.00,Weather View 32 v70,2013-02-10 03:30:00,
2013-02-09 22:35:00,30.0,23.7,30.54,NE,45,0.0,0.0,77,0.00,,,0.00,Weather View 32 v70,2013-02-10 03:35:00,
2013-02-09 22:40:00,30.0,23.7,30.54,NE,45,0.0,0.0,77,0.00,,,0.00,Weather View 32 v70,2013-02-10 03:40:00,
2013-02-09 22:45:00,30.0,23.7,30.54,NE,45,0.0,0.0,77,0.00,,,0.00,Weather View 32 v70,2013-02-10 03:45:00,
2013-02-09 22:50:00,29.0,22.7,30.54,NE,45,0.0,0.0,77,0.00,,,0.00,Weather View 32 v70,2013-02-10 03:50:00,
2013-02-09 22:55:00,29.0,22.7,30.54,NE,45,0.0,0.0,77,0.00,,,0.00,Weather View 32 v70,2013-02-10 03:55:00,
2013-02-09 23:00:00,29.0,22.7,30.54,NE,45,0.0,0.0,77,0.00,,,0.00,Weather View 32 v70,2013-02-10 04:00:00,
2013-02-09 23:05:00,29.0,22.7,30.56,NE,45,0.0,0.0,77,0.00,,,0.00,Weather View 32 v70,2013-02-10 04:05:00,
2013-02-09 23:11:00,29.0,22.7,30.56,NE,45,0.0,0.0,77,0.00,,,0.00,Weather View 32 v70,2013-02-10 04:11:00,
2013-02-09 23:20:00,29.0,22.7,30.56,NE,45,0.0,0.0,77,0.00,,,0.00,Weather View 32 v70,2013-02-10 04:20:00,
2013-02-09 23:25:00,29.0,22.7,30.56,NE,45,0.0,0.0,77,0.00,,,0.00,Weather View 32 v70,2013-02-10 04:25:00,
2013-02-09 23:30:00,28.0,21.7,30.56,NE,45,0.0,0.0,77,0.00,,,0.00,Weather View 32 v70,2013-02-10 04:30:00,
2013-02-09 23:35:00,28.0,21.7,30.56,NE,45,0.0,0.0,77,0.00,,,0.00,Weather View 32 v70,2013-02-10 04:35:00,
2013-02-09 23:40:00,28.0,21.7,30.56,NE,45,0.0,0.0,77,0.00,,,0.00,Weather View 32 v70,2013-02-10 04:40:00,
2013-02-09 23:45:00,28.0,21.7,30.55,NE,45,0.0,0.0,77,0.00,,,0.00,Weather View 32 v70,2013-02-10 04:45:00,
2013-02-09 23:50:00,28.0,21.7,30.55,NE,45,0.0,0.0,77,0.00,,,0.00,Weather View 32 v70,2013-02-10 04:50:00,
2013-02-09 23:55:00,28.0,21.7,30.56,NE,45,0.0,0.0,77,0.00,,,0.00,Weather View 32 v70,2013-02-10 04:55:00,